Date String (YYYY-MM-DD hh:mm:ss) UTC,Instrument flags,absolute air pressure of the measurement (hPa),sample flow rate (lpm),inlet stack bypass flow (lpm),air temperature of the measurement (°C),ambient temperature measured by the external sensor (°C),aerosol sample conditioner tube jacket temperature (°C),OPC LED temperature (°C),internal box temperature (°C),relative humidity of the measurement (%),span deviation,mass concentration of particles derived from Lorenz-Mie calculation of OPC scattering (μg/m³),mass concentration of particles derived from Lorenz-Mie calculation of OPC scattering (μg/m³),mass concentration of particles derived from Lorenz-Mie calculation of OPC scattering (μg/m³)
DateTimeUTC,F1_M11,P_M11,Q1_M11,Q2_M11,T1_M11,T2_M11,T3_M11,T4_M11,T5_M11,U1_M11,ZSPAN_M11,X2_M11,X0_M11,X1_M11
2023-10-02 14:00:00,SystemResetWarning,0829.7,5.00,000.00,027.7,026.5,000.0,036.1,029.5,22.0,0000.0,0004.44,0009.59,0003.65
2023-10-02 14:01:00,SystemResetWarning,0829.7,5.00,000.00,027.7,026.5,000.0,036.1,029.5,22.0,0000.0,0004.42,0009.44,0003.66
2023-10-02 14:02:00,SystemResetWarning,0829.7,5.00,000.00,027.8,026.5,000.0,036.1,029.5,22.0,0000.0,0004.43,0009.35,0003.65
2023-10-02 14:03:00,SystemResetWarning,0829.7,5.00,000.00,027.8,026.5,000.0,036.1,029.5,22.0,0000.0,0004.44,0009.40,0003.64
2023-10-02 14:04:00,SystemResetWarning,0829.7,5.00,000.00,027.8,026.5,000.0,036.1,029.5,22.0,0000.0,0004.44,0009.98,0003.64
2023-10-02 14:05:00,SystemResetWarning,0829.7,5.00,000.00,027.8,026.5,000.0,036.2,029.5,22.0,0000.0,0004.44,0010.22,0003.65
2023-10-02 14:06:00,SystemResetWarning,0829.8,5.00,000.00,027.8,026.5,000.0,036.2,029.6,21.9,0000.0,0004.41,0009.88,0003.65
2023-10-02 14:07:00,SystemResetWarning,0829.8,5.00,000.00,027.8,026.5,000.0,036.2,029.6,21.9,0000.0,0004.37,0009.95,0003.65
2023-10-02 14:08:00,SystemResetWarning,0829.8,5.00,000.00,027.8,026.5,000.0,036.2,029.6,21.9,0000.0,0004.36,0010.05,0003.64
2023-10-02 14:09:00,SystemResetWarning,0829.8,5.00,000.00,027.8,026.5,000.0,036.2,029.6,21.9,0000.0,0004.33,0009.78,0003.64
2023-10-02 14:10:00,SystemResetWarning,0829.8,5.00,000.00,027.8,026.5,000.0,036.2,029.6,21.9,0000.0,0004.28,0010.03,0003.63
2023-10-02 14:11:00,SystemResetWarning,0829.8,5.00,000.00,027.9,026.5,000.0,036.2,029.6,21.9,0000.0,0004.27,0009.83,0003.62
2023-10-02 14:12:00,SystemResetWarning,0829.8,5.00,000.00,027.9,026.6,000.0,036.2,029.6,21.8,0000.0,0004.28,0010.13,0003.62
2023-10-02 14:13:00,SystemResetWarning,0829.8,5.00,000.00,027.9,026.6,000.0,036.2,029.6,21.9,0000.0,0004.28,0010.58,0003.63
2023-10-02 14:14:00,SystemResetWarning,0829.8,5.00,000.00,027.9,026.6,000.0,036.2,029.6,21.9,0000.0,0004.29,0011.01,0003.63
2023-10-02 14:15:00,SystemResetWarning,0829.8,5.00,000.00,027.9,026.6,000.0,036.2,029.6,21.9,0000.0,0004.31,0010.96,0003.64
2023-10-02 14:16:00,SystemResetWarning,0829.8,5.00,000.00,027.9,026.6,000.0,036.3,029.6,21.9,0000.0,0004.31,0011.14,0003.65
2023-10-02 14:17:00,SystemResetWarning,0829.9,5.00,000.00,027.9,026.6,000.0,036.3,029.6,22.0,0000.0,0004.37,0011.69,0003.65
2023-10-02 14:18:00,SystemResetWarning,0829.9,4.99,000.00,027.9,026.6,000.0,036.3,029.7,22.1,0000.0,0004.45,0012.37,0003.66
2023-10-02 14:19:00,SystemResetWarning,0829.9,4.99,000.00,027.9,026.6,000.0,036.3,029.7,22.3,0000.0,0004.49,0012.40,0003.66
2023-10-02 14:20:00,SystemResetWarning,0829.9,5.01,000.00,027.9,026.6,000.0,036.3,029.7,21.9,0000.0,0004.51,0013.02,0003.67
2023-10-02 14:21:00,SystemResetWarning,0829.9,5.01,000.00,027.9,026.6,000.0,036.3,029.7,21.8,0000.0,0004.56,0012.82,0003.68
2023-10-02 14:22:00,SystemResetWarning,0829.9,5.00,000.00,027.9,026.6,000.0,036.3,029.7,21.6,0000.0,0004.60,0012.83,0003.68
2023-10-02 14:23:00,SystemResetWarning,0829.8,5.00,000.00,027.9,026.6,000.0,036.3,029.7,21.4,0000.0,0004.59,0012.36,0003.68
2023-10-02 14:24:00,SystemResetWarning,0829.8,4.99,000.00,027.9,026.6,000.0,036.3,029.6,21.7,0000.0,0004.64,0012.31,0003.68
2023-10-02 14:25:00,SystemResetWarning,0829.8,4.99,000.00,027.9,026.6,000.0,036.3,029.7,21.5,0000.0,0004.65,0012.71,0003.69
2023-10-02 14:26:00,SystemResetWarning,0829.8,4.99,000.00,027.9,026.6,000.0,036.3,029.7,21.3,0000.0,0004.62,0012.67,0003.67
2023-10-02 14:27:00,SystemResetWarning,0829.8,5.00,000.00,027.9,026.6,000.0,036.4,029.7,21.2,0000.0,0004.63,0012.02,0003.67
2023-10-02 14:28:00,SystemResetWarning,0829.8,5.00,000.00,027.9,026.6,000.0,036.4,029.7,21.1,0000.0,0004.58,0011.39,0003.66
2023-10-02 14:29:00,SystemResetWarning,0829.8,5.01,000.00,027.9,026.6,000.0,036.4,029.7,21.5,0000.0,0004.55,0010.61,0003.65
2023-10-02 14:30:00,SystemResetWarning,0829.8,5.01,000.00,027.9,026.6,000.0,036.4,029.6,22.1,0000.0,0004.49,0010.22,0003.65
2023-10-02 14:31:00,SystemResetWarning,0829.8,5.00,000.00,027.9,026.6,000.0,036.4,029.6,22.5,0000.0,0004.48,0010.60,0003.65
2023-10-02 14:32:00,SystemResetWarning,0829.7,4.99,000.00,027.9,026.5,000.0,036.4,029.6,22.9,0000.0,0004.52,0010.65,0003.65
2023-10-02 14:33:00,SystemResetWarning,0829.7,5.00,000.00,027.9,026.5,000.0,036.4,029.6,22.9,0000.0,0004.50,0010.99,0003.66
2023-10-02 14:34:00,SystemResetWarning,0829.6,5.00,000.00,027.9,026.5,000.0,036.4,029.6,23.0,0000.0,0004.51,0012.12,0003.67
2023-10-02 14:35:00,SystemResetWarning,0829.6,5.00,000.00,027.9,026.5,000.0,036.4,029.6,23.1,0000.0,0004.49,0012.96,0003.67
2023-10-02 14:36:00,SystemResetWarning,0829.6,5.01,000.00,027.9,026.5,000.0,036.4,029.6,22.4,0000.0,0004.43,0012.03,0003.65
2023-10-02 14:37:00,SystemResetWarning,0829.6,5.01,000.00,027.9,026.5,000.0,036.4,029.6,22.0,0000.0,0004.42,0011.61,0003.65
2023-10-02 14:38:00,SystemResetWarning,0829.5,5.00,000.00,027.9,026.5,000.0,036.4,029.6,21.4,0000.0,0004.42,0011.68,0003.65
2023-10-02 14:39:00,SystemResetWarning,0829.5,5.00,000.00,027.9,026.5,000.0,036.4,029.6,21.3,0000.0,0004.43,0011.89,0003.66
2023-10-02 14:40:00,SystemResetWarning,0829.5,4.99,000.00,027.9,026.5,000.0,036.4,029.6,21.2,0000.0,0004.44,0011.99,0003.66
2023-10-02 14:41:00,SystemResetWarning,0829.6,4.99,000.00,027.9,026.5,000.0,036.4,029.6,21.4,0000.0,0004.43,0012.10,0003.66
2023-10-02 14:42:00,SystemResetWarning,0829.7,4.99,000.00,027.9,026.5,000.0,036.4,029.6,21.4,0000.0,0004.42,0011.43,0003.66
2023-10-02 14:43:00,SystemResetWarning,0829.7,4.99,000.00,027.9,026.5,000.0,036.4,029.6,21.7,0000.0,0004.35,0010.80,0003.66
2023-10-02 14:44:00,SystemResetWarning,0829.7,5.00,000.00,027.9,026.5,000.0,036.4,029.6,21.7,0000.0,0004.37,0011.39,0003.65
2023-10-02 14:45:00,SystemResetWarning,0829.7,5.00,000.00,027.9,026.5,000.0,036.4,029.6,21.6,0000.0,0004.39,0010.72,0003.64
2023-10-02 14:46:00,SystemResetWarning,0829.7,5.00,000.00,027.9,026.5,000.0,036.4,029.6,21.8,0000.0,0004.37,0009.74,0003.64
2023-10-02 14:47:00,SystemResetWarning,0829.7,5.00,000.00,027.9,026.5,000.0,036.4,029.6,22.1,0000.0,0004.41,0010.05,0003.66
2023-10-02 14:48:00,SystemResetWarning,0829.6,5.00,000.00,027.9,026.5,000.0,036.4,029.6,22.3,0000.0,0004.46,0010.34,0003.67
2023-10-02 14:49:00,SystemResetWarning,0829.5,5.00,000.00,027.9,026.5,000.0,036.4,029.6,22.3,0000.0,0004.49,0011.10,0003.67
2023-10-02 14:50:00,SystemResetWarning,0829.4,5.00,000.00,027.9,026.5,000.0,036.4,029.6,22.4,0000.0,0004.49,0011.80,0003.68
2023-10-02 14:51:00,SystemResetWarning,0829.3,5.00,000.00,027.9,026.5,000.0,036.4,029.6,22.2,0000.0,0004.48,0012.18,0003.67
2023-10-02 14:52:00,SystemResetWarning,0829.3,5.00,000.00,027.9,026.5,000.0,036.4,029.7,22.3,0000.0,0004.45,0012.62,0003.66
2023-10-02 14:53:00,SystemResetWarning,0829.2,5.01,000.00,027.9,026.6,000.0,036.4,029.7,21.3,0000.0,0004.50,0013.33,0003.66
2023-10-02 14:54:00,SystemResetWarning,0829.1,5.00,000.00,028.0,026.6,000.0,036.4,029.7,21.4,0000.0,0004.53,0014.13,0003.66
2023-10-02 14:55:00,SystemResetWarning,0829.1,5.00,000.00,028.0,026.6,000.0,036.4,029.7,21.9,0000.0,0004.52,0013.39,0003.67
2023-10-02 14:56:00,SystemResetWarning,0829.1,5.00,000.00,028.0,026.7,000.0,036.4,029.7,21.7,0000.0,0004.50,0013.65,0003.67
2023-10-02 14:57:00,SystemResetWarning,0829.1,5.00,000.00,028.0,026.7,000.0,036.4,029.7,21.6,0000.0,0004.51,0013.46,0003.68
2023-10-02 14:58:00,SystemResetWarning,0829.0,5.00,000.00,028.0,026.7,000.0,036.5,029.8,21.7,0000.0,0004.47,0013.42,0003.69
2023-10-02 14:59:00,SystemResetWarning,0829.0,5.00,000.00,028.0,026.8,000.0,036.5,029.8,21.8,0000.0,0004.44,0013.24,0003.68
